SIA432 WSSS-VRMM

Flight info

Callsign SIA432
Flight time N/A
Altitude 40000
Route MIBEL1B MIBEL L762 MOZES M300 OKABU P756 TENIV TENIV1B
Aircraft A359/H-SDE2E3GHIJ3J4J5LM1ORWXY/LB1D1

Departure

Time 2026-05-05 02:02
Airport Singapore Changi Airport (WSSS)

Arrival

Time N/A
Airport Velana International Airport (VRMM)
Time Latitude Longitude Altitude Speed Heading
2026-05-05 01:40 1.35005 103.99032 16 ft 0 kts 78°
2026-05-05 01:45 1.35003 103.99025 16 ft 2 kts 78°
2026-05-05 01:46 1.35001 103.99013 16 ft 2 kts 78°
2026-05-05 01:46 1.34998 103.99002 16 ft 2 kts 78°
2026-05-05 01:46 1.34996 103.98992 16 ft 2 kts 84°
2026-05-05 01:46 1.34997 103.98982 16 ft 2 kts 114°
2026-05-05 01:47 1.35003 103.98973 16 ft 2 kts 140°
2026-05-05 01:47 1.35013 103.98967 16 ft 2 kts 168°
2026-05-05 01:47 1.35018 103.98966 16 ft 1 kts 176°
2026-05-05 01:47 1.35021 103.98965 16 ft 0 kts 175°
2026-05-05 01:49 1.35020 103.98965 16 ft 0 kts 175°
2026-05-05 01:49 1.35007 103.98967 16 ft 5 kts 175°
2026-05-05 01:49 1.35005 103.98967 16 ft 0 kts 175°
2026-05-05 01:55 1.35004 103.98967 16 ft 0 kts 175°
2026-05-05 01:55 1.34974 103.98969 16 ft 10 kts 175°
2026-05-05 01:56 1.34943 103.98975 16 ft 9 kts 163°
2026-05-05 01:56 1.34893 103.98998 16 ft 11 kts 147°
2026-05-05 01:56 1.34853 103.99045 16 ft 10 kts 119°
2026-05-05 01:56 1.34833 103.99097 16 ft 9 kts 106°
2026-05-05 01:57 1.34844 103.99131 16 ft 8 kts 46°
2026-05-05 01:57 1.34905 103.99167 16 ft 21 kts 24°
2026-05-05 01:57 1.35040 103.99223 16 ft 23 kts 22°
2026-05-05 01:57 1.35137 103.99264 16 ft 23 kts 23°
2026-05-05 01:58 1.35235 103.99305 16 ft 24 kts 22°
2026-05-05 01:58 1.35368 103.99361 16 ft 25 kts 22°
2026-05-05 01:58 1.35484 103.99409 16 ft 26 kts 23°
2026-05-05 01:58 1.35617 103.99464 16 ft 27 kts 23°
2026-05-05 01:59 1.35757 103.99523 16 ft 28 kts 22°
2026-05-05 01:59 1.35891 103.99580 16 ft 29 kts 22°
2026-05-05 01:59 1.36030 103.99637 16 ft 30 kts 22°
2026-05-05 01:59 1.36161 103.99690 16 ft 30 kts 22°
2026-05-05 02:00 1.36302 103.99751 16 ft 31 kts 22°
2026-05-05 02:00 1.36326 103.99760 15 ft 0 kts 22°
2026-05-05 02:00 1.36374 103.99780 16 ft 18 kts 20°
2026-05-05 02:00 1.36414 103.99805 16 ft 5 kts 64°
2026-05-05 02:01 1.36403 103.99847 16 ft 16 kts 130°
2026-05-05 02:01 1.36273 103.99884 16 ft 35 kts 172°
2026-05-05 02:01 1.36108 103.99872 16 ft 39 kts 204°
2026-05-05 02:01 1.35911 103.99777 16 ft 77 kts 202°
2026-05-05 02:02 1.35543 103.99627 16 ft 119 kts 203°
2026-05-05 02:02 1.34919 103.99364 17 ft 162 kts 203°
2026-05-05 02:02 1.34062 103.99003 301 ft 181 kts 203°
2026-05-05 02:02 1.33132 103.98606 965 ft 173 kts 203°
2026-05-05 02:03 1.32102 103.98167 1592 ft 169 kts 204°
2026-05-05 02:03 1.31189 103.97777 1992 ft 176 kts 204°
2026-05-05 02:03 1.30307 103.97401 2288 ft 188 kts 204°
2026-05-05 02:03 1.29175 103.96918 2662 ft 202 kts 204°
2026-05-05 02:04 1.27980 103.96410 3045 ft 216 kts 204°
2026-05-05 02:04 1.26910 103.95956 3357 ft 230 kts 204°
2026-05-05 02:04 1.25876 103.95520 3701 ft 242 kts 204°
2026-05-05 02:04 1.23660 103.94589 4447 ft 265 kts 204°
2026-05-05 02:05 1.21911 103.93841 5110 ft 277 kts 205°
2026-05-05 02:05 1.20149 103.93063 5970 ft 282 kts 205°
2026-05-05 02:05 1.18330 103.92253 6899 ft 285 kts 206°
2026-05-05 02:05 1.16526 103.91451 7816 ft 288 kts 206°
2026-05-05 02:06 1.14671 103.90628 8754 ft 290 kts 206°
2026-05-05 02:06 1.12822 103.89808 9676 ft 293 kts 206°
2026-05-05 02:06 1.10973 103.88988 10549 ft 296 kts 206°
2026-05-05 02:06 1.09032 103.88125 11115 ft 311 kts 206°
2026-05-05 02:07 1.06988 103.87216 11603 ft 328 kts 206°
2026-05-05 02:07 1.04850 103.86269 12089 ft 344 kts 206°
2026-05-05 02:07 1.02613 103.85278 12814 ft 352 kts 206°
2026-05-05 02:07 1.00385 103.84293 13658 ft 355 kts 205°
2026-05-05 02:08 0.98092 103.83279 14512 ft 357 kts 205°
2026-05-05 02:08 0.95811 103.82269 15278 ft 360 kts 205°
2026-05-05 02:08 0.93503 103.81248 15769 ft 362 kts 205°
2026-05-05 02:08 0.91222 103.80241 15987 ft 363 kts 205°
2026-05-05 02:09 0.88881 103.79208 15999 ft 362 kts 205°
2026-05-05 02:09 0.86570 103.78194 16003 ft 362 kts 205°
2026-05-05 02:09 0.84275 103.77183 16005 ft 362 kts 205°
2026-05-05 02:09 0.81954 103.76160 16005 ft 362 kts 205°
2026-05-05 02:10 0.79673 103.75151 16004 ft 362 kts 205°
2026-05-05 02:10 0.77370 103.74132 16002 ft 362 kts 205°
2026-05-05 02:10 0.75097 103.73012 15991 ft 361 kts 214°
2026-05-05 02:10 0.73279 103.71302 15997 ft 361 kts 234°
2026-05-05 02:11 0.72145 103.69039 15999 ft 362 kts 253°
2026-05-05 02:11 0.71817 103.66568 16008 ft 364 kts 266°
2026-05-05 02:11 0.71779 103.64033 16003 ft 364 kts 268°
2026-05-05 02:11 0.71769 103.61483 16001 ft 364 kts 268°
2026-05-05 02:12 0.71756 103.58942 16000 ft 364 kts 268°
2026-05-05 02:12 0.71710 103.53862 16002 ft 364 kts 268°
2026-05-05 02:12 0.71680 103.51317 16003 ft 364 kts 268°
2026-05-05 02:13 0.71649 103.48794 16004 ft 364 kts 268°
2026-05-05 02:13 0.71616 103.46227 16005 ft 364 kts 268°
2026-05-05 02:13 0.71583 103.43716 16007 ft 364 kts 268°
2026-05-05 02:13 0.71549 103.41176 16008 ft 364 kts 268°
2026-05-05 02:14 0.71515 103.38629 16009 ft 364 kts 268°
2026-05-05 02:14 0.71481 103.36052 16010 ft 364 kts 268°
2026-05-05 02:14 0.71448 103.33523 16011 ft 364 kts 268°
2026-05-05 02:14 0.71414 103.30971 16011 ft 364 kts 268°
2026-05-05 02:15 0.71381 103.28440 16011 ft 364 kts 268°
2026-05-05 02:15 0.71346 103.25884 16011 ft 364 kts 268°
2026-05-05 02:15 0.71313 103.23350 16011 ft 364 kts 268°
2026-05-05 02:15 0.71278 103.20786 16019 ft 366 kts 268°
2026-05-05 02:16 0.71243 103.18210 16334 ft 372 kts 268°
2026-05-05 02:16 0.71213 103.15914 17034 ft 374 kts 268°
2026-05-05 02:16 0.71178 103.13273 17841 ft 377 kts 267°
2026-05-05 02:16 0.71143 103.10646 18537 ft 381 kts 267°
2026-05-05 02:17 0.71106 103.07972 19209 ft 386 kts 267°
2026-05-05 02:17 0.71067 103.05251 19876 ft 392 kts 267°
2026-05-05 02:17 0.71029 103.02507 20533 ft 396 kts 267°
2026-05-05 02:17 0.70989 102.99690 21184 ft 401 kts 267°
2026-05-05 02:18 0.70950 102.96909 21805 ft 406 kts 267°
2026-05-05 02:18 0.70910 102.94075 22418 ft 411 kts 267°
2026-05-05 02:18 0.70876 102.91191 22958 ft 418 kts 269°
2026-05-05 02:18 0.71267 102.88219 23477 ft 427 kts 284°
2026-05-05 02:19 0.72465 102.85482 24023 ft 435 kts 301°
2026-05-05 02:19 0.74357 102.83111 24586 ft 440 kts 311°
2026-05-05 02:19 0.76451 102.80887 25127 ft 444 kts 313°
2026-05-05 02:19 0.78628 102.78631 25640 ft 448 kts 313°
2026-05-05 02:20 0.80801 102.76372 26140 ft 452 kts 313°
2026-05-05 02:20 0.82964 102.74109 26628 ft 455 kts 313°
2026-05-05 02:20 0.85153 102.71804 27107 ft 459 kts 313°
2026-05-05 02:20 0.87367 102.69463 27578 ft 462 kts 313°
2026-05-05 02:21 0.89561 102.67137 28031 ft 465 kts 313°
2026-05-05 02:21 0.91771 102.64792 28472 ft 467 kts 313°
2026-05-05 02:21 0.94026 102.62397 28905 ft 470 kts 313°
2026-05-05 02:21 0.96266 102.60017 29321 ft 473 kts 313°
2026-05-05 02:22 0.98535 102.57606 29727 ft 475 kts 313°
2026-05-05 02:22 1.00801 102.55199 30121 ft 478 kts 313°
2026-05-05 02:22 1.03085 102.52773 30504 ft 480 kts 313°
2026-05-05 02:22 1.05404 102.50308 30875 ft 482 kts 313°
2026-05-05 02:23 1.07727 102.47840 31232 ft 484 kts 313°
2026-05-05 02:23 1.10021 102.45402 31573 ft 486 kts 313°
2026-05-05 02:23 1.12366 102.42920 31902 ft 488 kts 313°
2026-05-05 02:23 1.14732 102.40421 32222 ft 490 kts 313°
2026-05-05 02:24 1.17083 102.37934 32528 ft 492 kts 313°
2026-05-05 02:24 1.19454 102.35420 32901 ft 493 kts 313°
2026-05-05 02:24 1.21784 102.32938 33343 ft 491 kts 313°
2026-05-05 02:24 1.24160 102.30394 33794 ft 489 kts 313°
2026-05-05 02:25 1.26500 102.27891 34218 ft 488 kts 313°
2026-05-05 02:25 1.28814 102.25423 34616 ft 487 kts 313°
2026-05-05 02:25 1.31160 102.22926 35004 ft 486 kts 313°
2026-05-05 02:25 1.33458 102.20482 35373 ft 485 kts 313°
2026-05-05 02:26 1.35792 102.17986 35737 ft 484 kts 312°
2026-05-05 02:26 1.38008 102.15423 36089 ft 483 kts 309°
2026-05-05 02:26 1.40097 102.12730 36429 ft 482 kts 306°
2026-05-05 02:26 1.42015 102.09958 36742 ft 482 kts 303°
2026-05-05 02:27 1.43771 102.07124 37029 ft 482 kts 301°
2026-05-05 02:27 1.45504 102.04215 37309 ft 482 kts 300°
2026-05-05 02:27 1.47225 102.01308 37580 ft 482 kts 300°
2026-05-05 02:27 1.48927 101.98436 37840 ft 482 kts 301°
2026-05-05 02:28 1.50647 101.95541 38093 ft 482 kts 301°
2026-05-05 02:28 1.52317 101.92734 38310 ft 483 kts 301°
2026-05-05 02:28 1.54051 101.89825 38505 ft 484 kts 301°
2026-05-05 02:28 1.55785 101.86918 38686 ft 485 kts 301°
2026-05-05 02:29 1.57520 101.84010 38865 ft 486 kts 301°
2026-05-05 02:29 1.59265 101.81086 39042 ft 487 kts 301°
2026-05-05 02:29 1.61010 101.78162 39214 ft 488 kts 301°
2026-05-05 02:29 1.62790 101.75179 39384 ft 489 kts 301°
2026-05-05 02:30 1.64533 101.72258 39544 ft 490 kts 301°
2026-05-05 02:30 1.66302 101.69295 39702 ft 491 kts 301°
2026-05-05 02:30 1.68073 101.66327 39853 ft 492 kts 301°
2026-05-05 02:31 1.71613 101.60393 39888 ft 494 kts 301°
2026-05-05 02:31 1.75115 101.54524 39892 ft 494 kts 301°
2026-05-05 02:32 1.78638 101.48619 39893 ft 494 kts 301°
2026-05-05 02:32 1.82163 101.42711 39893 ft 494 kts 301°
2026-05-05 02:33 1.85683 101.36809 39893 ft 494 kts 301°
2026-05-05 02:33 1.89213 101.30875 39893 ft 494 kts 301°
2026-05-05 02:34 1.92713 101.24980 39893 ft 494 kts 301°
2026-05-05 02:34 1.96221 101.19088 39894 ft 494 kts 301°
2026-05-05 02:35 1.99748 101.13169 39894 ft 494 kts 301°
2026-05-05 02:35 2.03274 101.07256 39894 ft 494 kts 301°
2026-05-05 02:36 2.06783 101.01369 39894 ft 494 kts 301°
2026-05-05 02:36 2.10298 100.95469 39894 ft 493 kts 301°
2026-05-05 02:37 2.13840 100.89574 39905 ft 492 kts 301°
2026-05-05 02:37 2.17333 100.83746 39936 ft 490 kts 302°
2026-05-05 02:38 2.20829 100.77891 39993 ft 488 kts 302°
2026-05-05 02:38 2.24292 100.72082 40063 ft 488 kts 302°
2026-05-05 02:39 2.27780 100.66228 40118 ft 487 kts 302°
2026-05-05 02:39 2.31239 100.60419 40146 ft 487 kts 302°
2026-05-05 02:40 2.34720 100.54575 40158 ft 487 kts 302°
2026-05-05 02:40 2.38182 100.48772 40163 ft 487 kts 302°
2026-05-05 02:41 2.41672 100.42932 40165 ft 487 kts 302°
2026-05-05 02:41 2.45124 100.37153 40165 ft 487 kts 302°
2026-05-05 02:42 2.48588 100.31336 40165 ft 487 kts 301°
2026-05-05 02:42 2.52057 100.25496 40165 ft 487 kts 301°
2026-05-05 02:43 2.55526 100.19675 40165 ft 487 kts 302°
2026-05-05 02:43 2.59004 100.13848 40165 ft 487 kts 302°
2026-05-05 02:44 2.62505 100.07986 40165 ft 487 kts 302°
2026-05-05 02:44 2.65822 100.02432 40165 ft 487 kts 302°
2026-05-05 02:45 2.69201 99.96581 40164 ft 487 kts 298°
2026-05-05 02:45 2.72048 99.90435 40164 ft 488 kts 292°
2026-05-05 02:46 2.74264 99.84059 40165 ft 488 kts 288°
2026-05-05 02:46 2.76302 99.77552 40165 ft 488 kts 288°
2026-05-05 02:47 2.78334 99.71074 40165 ft 488 kts 288°
2026-05-05 02:47 2.80371 99.64610 40165 ft 488 kts 288°
2026-05-05 02:48 2.82427 99.58094 40165 ft 488 kts 288°
2026-05-05 02:48 2.84398 99.51852 40165 ft 488 kts 288°
2026-05-05 02:49 2.86419 99.45453 40165 ft 488 kts 288°
2026-05-05 02:49 2.88343 99.39361 40165 ft 488 kts 288°
2026-05-05 02:50 2.90309 99.33136 40160 ft 495 kts 288°
2026-05-05 02:51 2.94118 99.20949 40129 ft 498 kts 288°
2026-05-05 02:51 2.96158 99.14402 40101 ft 499 kts 288°
2026-05-05 02:52 2.98194 99.07887 40070 ft 500 kts 288°
2026-05-05 02:52 3.00265 99.01271 40034 ft 501 kts 287°
2026-05-05 02:53 3.02343 98.94631 40001 ft 499 kts 287°
2026-05-05 02:53 3.04415 98.87995 39968 ft 496 kts 287°
2026-05-05 02:54 3.06455 98.81458 39939 ft 494 kts 287°
2026-05-05 02:54 3.08508 98.74883 39927 ft 494 kts 287°
2026-05-05 02:55 3.10540 98.68386 39922 ft 495 kts 287°
2026-05-05 02:55 3.12609 98.61863 39920 ft 494 kts 287°
2026-05-05 02:56 3.14671 98.55321 39919 ft 494 kts 287°
2026-05-05 02:56 3.16734 98.48737 39920 ft 494 kts 287°
2026-05-05 02:57 3.18724 98.42363 39919 ft 494 kts 287°
2026-05-05 02:57 3.20793 98.35733 39919 ft 494 kts 287°
2026-05-05 02:58 3.22835 98.29166 39919 ft 494 kts 287°
2026-05-05 02:58 3.24887 98.22562 39919 ft 494 kts 286°
2026-05-05 02:59 3.26937 98.15981 39920 ft 494 kts 286°
2026-05-05 02:59 3.28952 98.09514 39919 ft 494 kts 287°
2026-05-05 03:00 3.30871 98.03360 39919 ft 494 kts 287°
2026-05-05 03:00 3.32875 97.96934 39919 ft 494 kts 287°
2026-05-05 03:01 3.34917 97.90379 39919 ft 494 kts 287°
2026-05-05 03:01 3.36966 97.83800 39919 ft 494 kts 287°
2026-05-05 03:02 3.39010 97.77240 39919 ft 494 kts 287°
2026-05-05 03:02 3.41042 97.70665 39919 ft 494 kts 285°
2026-05-05 03:03 3.42608 97.63990 39919 ft 493 kts 279°
2026-05-05 03:03 3.43443 97.57156 39918 ft 492 kts 273°
2026-05-05 03:04 3.43526 97.50281 39919 ft 492 kts 266°
2026-05-05 03:04 3.43113 97.43447 39919 ft 492 kts 265°
2026-05-05 03:05 3.42670 97.36645 39920 ft 492 kts 265°
2026-05-05 03:05 3.42237 97.29836 39919 ft 492 kts 265°
2026-05-05 03:06 3.41806 97.22957 39920 ft 492 kts 265°
2026-05-05 03:06 3.41377 97.16112 39921 ft 491 kts 265°
2026-05-05 03:07 3.40950 97.09341 39919 ft 489 kts 266°
2026-05-05 03:07 3.40517 97.02455 39920 ft 488 kts 266°
2026-05-05 03:08 3.40089 96.95657 39919 ft 488 kts 266°
2026-05-05 03:08 3.39662 96.88851 39918 ft 489 kts 266°
2026-05-05 03:09 3.39237 96.82074 39919 ft 489 kts 266°
2026-05-05 03:09 3.38808 96.75271 39920 ft 489 kts 266°
2026-05-05 03:10 3.38379 96.68480 39920 ft 488 kts 266°
2026-05-05 03:10 3.37952 96.61723 39919 ft 488 kts 266°
2026-05-05 03:11 3.37523 96.54939 39919 ft 488 kts 266°
2026-05-05 03:11 3.37094 96.48177 39919 ft 489 kts 266°
2026-05-05 03:12 3.36665 96.41408 39918 ft 488 kts 266°
2026-05-05 03:12 3.36233 96.34606 39920 ft 489 kts 266°
2026-05-05 03:13 3.35801 96.27776 39920 ft 488 kts 266°
2026-05-05 03:13 3.35371 96.21004 39920 ft 488 kts 266°
2026-05-05 03:14 3.34936 96.14179 39919 ft 489 kts 266°
2026-05-05 03:14 3.34505 96.07410 39920 ft 489 kts 266°
2026-05-05 03:15 3.34072 96.00623 39921 ft 488 kts 266°
2026-05-05 03:15 3.33636 95.93805 39918 ft 489 kts 266°
2026-05-05 03:16 3.33204 95.87058 39919 ft 489 kts 266°
2026-05-05 03:16 3.32768 95.80243 39919 ft 489 kts 266°
2026-05-05 03:17 3.32335 95.73482 39918 ft 488 kts 266°
2026-05-05 03:17 3.31897 95.66666 39920 ft 489 kts 266°
2026-05-05 03:18 3.31462 95.59907 39919 ft 489 kts 266°
2026-05-05 03:18 3.31024 95.53104 39920 ft 489 kts 266°
2026-05-05 03:19 3.30363 95.42824 39918 ft 489 kts 266°
2026-05-05 03:19 3.29926 95.36057 39917 ft 488 kts 266°
2026-05-05 03:20 3.29489 95.29257 39920 ft 488 kts 266°
2026-05-05 03:20 3.29052 95.22473 39919 ft 489 kts 266°
2026-05-05 03:21 3.28615 95.15706 39920 ft 489 kts 266°
2026-05-05 03:21 3.28174 95.08907 39918 ft 489 kts 266°
2026-05-05 03:22 3.27734 95.02111 39920 ft 489 kts 266°
2026-05-05 03:22 3.27292 94.95369 39919 ft 487 kts 267°
2026-05-05 03:23 3.26847 94.88541 39918 ft 490 kts 268°
2026-05-05 03:23 3.26390 94.81686 39916 ft 499 kts 266°
2026-05-05 03:24 3.25872 94.74780 39918 ft 500 kts 266°
2026-05-05 03:24 3.25338 94.67812 39920 ft 499 kts 266°
2026-05-05 03:25 3.24814 94.60918 39920 ft 499 kts 266°
2026-05-05 03:25 3.24291 94.54002 39920 ft 499 kts 266°
2026-05-05 03:26 3.23769 94.47084 39920 ft 499 kts 266°
2026-05-05 03:26 3.23247 94.40162 39920 ft 499 kts 266°
2026-05-05 03:27 3.22722 94.33211 39919 ft 499 kts 266°
2026-05-05 03:27 3.22200 94.26289 39920 ft 499 kts 266°
2026-05-05 03:28 3.21679 94.19392 39920 ft 499 kts 266°
2026-05-05 03:28 3.21157 94.12489 39920 ft 499 kts 266°
2026-05-05 03:29 3.20631 94.05546 39920 ft 499 kts 266°
2026-05-05 03:29 3.20106 93.98625 39920 ft 499 kts 266°
2026-05-05 03:30 3.19579 93.91688 39920 ft 499 kts 266°
2026-05-05 03:30 3.19054 93.84782 39920 ft 499 kts 266°
2026-05-05 03:31 3.18526 93.77845 39920 ft 499 kts 266°
2026-05-05 03:31 3.17998 93.70911 39920 ft 499 kts 266°
2026-05-05 03:32 3.17472 93.64004 39920 ft 499 kts 266°
2026-05-05 03:32 3.16946 93.57104 39920 ft 499 kts 266°
2026-05-05 03:33 3.16414 93.50136 39920 ft 499 kts 266°
2026-05-05 03:33 3.15884 93.43205 39920 ft 499 kts 266°
2026-05-05 03:34 3.15355 93.36288 39920 ft 499 kts 266°
2026-05-05 03:34 3.14826 93.29367 39920 ft 499 kts 266°
2026-05-05 03:35 3.14297 93.22438 39920 ft 499 kts 266°
2026-05-05 03:35 3.13761 93.15450 39920 ft 499 kts 266°
2026-05-05 03:36 3.13228 93.08501 39920 ft 499 kts 266°
2026-05-05 03:36 3.12696 93.01565 39920 ft 499 kts 266°
2026-05-05 03:37 3.12164 92.94654 39920 ft 499 kts 266°
2026-05-05 03:37 3.11631 92.87726 39920 ft 499 kts 266°
2026-05-05 03:38 3.11096 92.80782 39920 ft 499 kts 266°
2026-05-05 03:38 3.10565 92.73886 39920 ft 499 kts 266°
2026-05-05 03:39 3.10031 92.66966 39920 ft 499 kts 266°
2026-05-05 03:39 3.09498 92.60066 39920 ft 499 kts 266°
2026-05-05 03:40 3.08964 92.53151 39920 ft 499 kts 266°
2026-05-05 03:40 3.08426 92.46197 39920 ft 499 kts 266°
2026-05-05 03:41 3.07888 92.39243 39920 ft 499 kts 266°
2026-05-05 03:41 3.07352 92.32325 39920 ft 499 kts 266°
2026-05-05 03:42 3.06814 92.25373 39920 ft 499 kts 266°
2026-05-05 03:42 3.06280 92.18480 39920 ft 499 kts 266°
2026-05-05 03:43 3.05740 92.11543 39920 ft 499 kts 266°
2026-05-05 03:43 3.05202 92.04610 39920 ft 499 kts 267°
2026-05-05 03:44 3.05022 91.97724 39920 ft 499 kts 272°
2026-05-05 03:44 3.05414 91.90756 39920 ft 504 kts 275°
2026-05-05 03:45 3.05887 91.83717 39920 ft 506 kts 275°
2026-05-05 03:45 3.06349 91.76705 39920 ft 506 kts 275°
2026-05-05 03:46 3.06803 91.69687 39920 ft 506 kts 275°
2026-05-05 03:46 3.07254 91.62679 39920 ft 506 kts 275°
2026-05-05 03:47 3.07706 91.55641 39920 ft 506 kts 275°
2026-05-05 03:47 3.08158 91.48589 39920 ft 506 kts 275°
2026-05-05 03:48 3.08605 91.41608 39920 ft 506 kts 275°
2026-05-05 03:48 3.09055 91.34557 39920 ft 506 kts 275°
2026-05-05 03:49 3.09501 91.27543 39920 ft 506 kts 275°
2026-05-05 03:49 3.09945 91.20554 39920 ft 506 kts 275°
2026-05-05 03:50 3.10391 91.13538 39921 ft 505 kts 275°
2026-05-05 03:50 3.10836 91.06535 39920 ft 503 kts 275°
2026-05-05 03:51 3.11282 90.99532 39920 ft 501 kts 275°
2026-05-05 03:51 3.11724 90.92577 39921 ft 500 kts 275°
2026-05-05 03:52 3.12163 90.85664 39919 ft 500 kts 275°
2026-05-05 03:52 3.12605 90.78697 39918 ft 500 kts 275°
2026-05-05 03:53 3.13047 90.71734 39919 ft 500 kts 275°
2026-05-05 03:53 3.13474 90.64997 39919 ft 500 kts 275°
2026-05-05 03:54 3.13909 90.58119 39919 ft 500 kts 275°
2026-05-05 03:54 3.14300 90.51931 39919 ft 500 kts 275°
2026-05-05 03:55 3.14707 90.45493 39918 ft 500 kts 275°
2026-05-05 03:55 3.15133 90.38710 39920 ft 500 kts 275°
2026-05-05 03:56 3.15558 90.31943 39919 ft 500 kts 275°
2026-05-05 03:56 3.15994 90.24934 39920 ft 500 kts 275°
2026-05-05 03:57 3.16428 90.17982 39919 ft 500 kts 275°
2026-05-05 03:57 3.16865 90.11005 39919 ft 500 kts 275°
2026-05-05 03:58 3.17301 90.04050 39919 ft 500 kts 275°
2026-05-05 03:58 3.17737 89.97070 39920 ft 500 kts 275°
2026-05-05 03:59 3.18172 89.90111 39919 ft 500 kts 275°
2026-05-05 03:59 3.18609 89.83110 39919 ft 500 kts 275°
2026-05-05 04:00 3.19045 89.76121 39919 ft 500 kts 275°
2026-05-05 04:00 3.19481 89.69122 39918 ft 500 kts 275°
2026-05-05 04:01 3.19916 89.62126 39919 ft 500 kts 275°
2026-05-05 04:01 3.20352 89.55109 39936 ft 500 kts 275°
2026-05-05 04:02 3.20786 89.48118 39973 ft 500 kts 275°
2026-05-05 04:02 3.21219 89.41138 39991 ft 500 kts 275°
2026-05-05 04:03 3.21653 89.34125 40002 ft 500 kts 275°
2026-05-05 04:03 3.22086 89.27092 40005 ft 499 kts 275°
2026-05-05 04:04 3.22516 89.20086 40007 ft 500 kts 275°
2026-05-05 04:04 3.22947 89.13090 40007 ft 500 kts 275°
2026-05-05 04:05 3.23381 89.06068 40008 ft 499 kts 275°
2026-05-05 04:05 3.23812 88.99065 40007 ft 500 kts 275°
2026-05-05 04:06 3.24242 88.92057 40008 ft 499 kts 275°
2026-05-05 04:06 3.24674 88.85024 40009 ft 499 kts 275°
2026-05-05 04:07 3.25103 88.78035 40008 ft 498 kts 275°